User: anonymous   Login
Location: Unspecified
(0.0000°N, 0.0000°E)
Time: 23:59:29
(UTC+00:00)
Language:

PICSAT - Orbit

View from above orbital plane
View from above orbital plane
View from above satellite
View from above satellite

Ground track
Ground track

The orbit data is extracted from the following two-line orbital elements,

1 43132U 18004X   21023.16504373  .00001509  00000-0  62927-4 0  9998
2 43132  97.4254  98.9710 0009337  10.7175 349.4260 15.25212017168530
Epoch (UTC): 23 January 2021 03:57:39
Eccentricity: 0.0009337
inclination: 97.4254°
perigee height: 484 km
apogee height: 496 km
right ascension of ascending node: 98.9710°
argument of perigee: 10.7175°
revolutions per day: 15.25212017
mean anomaly at epoch: 349.4260°
orbit number at epoch: 16853

The dashed part of the orbit path shows where the satellite is in the earth's shadow,  

DLR